Torrington, WY

10:08 PM MDT on March 26, 2017 (GMT -0600)
Torrington Municipal

Weather History for KTOR - November, 2013

Change the Weather History Date:

Thursday, November 14, 2013

  Actual Average Record
Temperature  
Mean Temperature 46 °F 36 °F  
Max Temperature 58 °F 50 °F 74 °F (1999)
Min Temperature 33 °F 23 °F -3 °F (2000)
Degree Days  
Heating Degree Days 19 28  
Month to date heating degree days 353 357  
Since 1 July heating degree days 1055 1067  
Cooling Degree Days 0 0  
Month to date cooling degree days 0 0  
Year to date cooling degree days 893 678  
Moisture  
Dew Point 32 °F    
Average Humidity 56    
Maximum Humidity 82    
Minimum Humidity 30    
Precipitation  
Precipitation T in 0.01 in 0.08 in (2005)
Month to date precipitation 0.23 0.26  
Year to date precipitation 13.35 13.66  
Sea Level Pressure  
Sea Level Pressure 29.91 in    
Wind  
Wind Speed 8 mph (North)    
Max Wind Speed 18 mph    
Max Gust Speed 23 mph    
Visibility 10 miles    
Events      
T = Trace of Precipitation, MM = Missing Value Source: NWS Daily Summary

Daily Weather History Graph

Daily Weather History Graph

Search for Another Location

Airport or City:

Trip Planner

Search our weather history database for the weather conditions in past years. The results will help you decide how hot, cold, wet, or windy it might be!

Date:

Astronomy

Nov. 14, 2013 Rise Set
Actual Time 6:45 AM MST 4:35 PM MST
Civil Twilight 6:15 AM MST 5:05 PM MST
Nautical Twilight 5:41 AM MST 5:39 PM MST
Astronomical Twilight 5:08 AM MST 6:12 PM MST
Moon 3:00 PM MST (11/14) 3:40 AM MST (11/14)
Length of Visible Light 10h 50m
Length of Day
9h 50m
Waxing Gibbous, 92% of the Moon is Illuminated
Nov 14
Waxing Gibbous
Nov 17
Full
Nov 25
Last Quarter
Dec 2
New
Dec 9
First Quarter

Hourly Weather History & Observations

Time (MST) Temp. Windchill Dew Point Humidity Pressure Visibility Wind Dir Wind Speed Gust Speed Precip Events Conditions
12:53 AM 46.9 °F - 36.0 °F 66% 29.95 in 10.0 mi NNW 13.8 mph 20.7 mph N/A   Overcast
1:53 AM 45.0 °F 40.1 °F 37.0 °F 74% 29.98 in 10.0 mi NW 9.2 mph - N/A   Overcast
2:53 AM 44.1 °F 38.1 °F 37.0 °F 76% 30.00 in 10.0 mi NW 11.5 mph - 0.00 in   Mostly Cloudy
3:53 AM 42.1 °F 36.6 °F 36.0 °F 79% 30.02 in 10.0 mi NW 9.2 mph - N/A   Partly Cloudy
4:53 AM 42.1 °F 35.7 °F 35.1 °F 76% 30.05 in 10.0 mi NW 11.5 mph - N/A   Overcast
5:53 AM 39.9 °F 32.9 °F 33.1 °F 77% 30.05 in 10.0 mi NNW 11.5 mph - N/A   Overcast
6:53 AM 39.0 °F 34.8 °F 32.0 °F 76% 30.06 in 10.0 mi NW 5.8 mph - N/A   Overcast
7:53 AM 39.0 °F 35.7 °F 33.1 °F 79% 30.06 in 10.0 mi West 4.6 mph - N/A   Clear
8:53 AM 44.1 °F 40.1 °F 34.0 °F 68% 30.04 in 10.0 mi West 6.9 mph - N/A   Clear
9:53 AM 46.9 °F - 30.9 °F 54% 30.01 in 10.0 mi WSW 5.8 mph - N/A   Clear
10:53 AM 48.9 °F - 32.0 °F 52% 29.98 in 10.0 mi Calm Calm - N/A   Clear
11:53 AM 52.0 °F - 32.0 °F 47% 29.92 in 10.0 mi SSW 9.2 mph - N/A   Clear
12:53 PM 54.0 °F - 33.1 °F 45% 29.86 in 10.0 mi SSE 6.9 mph - N/A   Clear
1:53 PM 57.0 °F - 27.0 °F 32% 29.81 in 10.0 mi West 4.6 mph - N/A   Clear
2:53 PM 57.0 °F - 27.0 °F 32% 29.80 in 10.0 mi North 6.9 mph - N/A   Clear
3:53 PM 52.0 °F - 28.0 °F 40% 29.82 in 10.0 mi NE 6.9 mph - N/A   Clear
4:53 PM 46.0 °F 41.9 °F 30.0 °F 54% 29.83 in 10.0 mi East 8.1 mph - N/A   Clear
5:53 PM 44.1 °F 39.5 °F 30.0 °F 58% 29.85 in 10.0 mi ESE 8.1 mph - N/A   Clear
6:53 PM 42.1 °F 37.7 °F 30.9 °F 65% 29.84 in 10.0 mi East 6.9 mph - N/A   Clear
7:53 PM 39.0 °F 33.4 °F 30.9 °F 73% 29.84 in 10.0 mi East 8.1 mph - N/A   Clear
8:53 PM 39.9 °F 35.8 °F 30.9 °F 70% 29.82 in 10.0 mi ESE 5.8 mph - N/A   Clear
9:53 PM 37.9 °F 32.7 °F 30.9 °F 76% 29.78 in 10.0 mi East 6.9 mph - N/A   Clear
10:53 PM 35.1 °F 28.6 °F 30.0 °F 82% 29.76 in 10.0 mi ESE 8.1 mph - N/A   Clear
11:53 PM 33.1 °F 26.9 °F 30.0 °F 89% 29.73 in 10.0 mi ESE 6.9 mph - N/A   Clear